Regional Weather Roundup
Issued by NWS Raleigh/Durham, NC

Home | Current Version | Previous Version | Text Only | Print | Product List | Glossary On
Versions: 1 2 3 4 5 6 7 8 9 10 11 12 13 14 15 16 17 18 19 20 21 22 23 24 25 26 27 28 29 30 31 32 33 34 35 36 37 38 39 40 41 42 43 44 45 46 47 48 49 50
000
ASUS42 KRAH 161910
RWRRAH
NORTH CAROLINA WEATHER ROUNDUP
NATIONAL WEATHER SERVICE RALEIGH NC
300 PM EDT TUE SEP 16 2014

NOTE: "FAIR" INDICATES FEW OR NO CLOUDS BELOW 12,000 FEET WITH NO
SIGNIFICANT WEATHER AND/OR OBSTRUCTIONS TO VISIBILITY.

NCZ001-053-055-056-065-067-162000-
WESTERN NORTH CAROLINA

CITY           SKY/WX    TMP DP  RH WIND       PRES   REMARKS
ASHEVILLE      MOSUNNY   80  64  58 VRB6      30.07F
JEFFERSON      CLOUDY    72  57  58 W15G23    30.11S
MORGANTON      PTSUNNY   82  64  55 SW6       30.05F
HICKORY        CLOUDY    82  67  60 S7        30.00F
RUTHERFORDTON  MOSUNNY   82  69  64 CALM      30.01F
MOUNT AIRY     SUNNY     81  68  65 CALM      30.02F
BOONE          PTSUNNY   71  58  64 NW8G21    30.11F
$$

NCZ021-022-025-041-071-084-088-162000-
CENTRAL NORTH CAROLINA

CITY           SKY/WX    TMP DP  RH WIND       PRES   REMARKS
CHARLOTTE      MOSUNNY   85  64  49 CALM      30.00F
GREENSBORO     PTSUNNY   81  64  56 NW7       29.99F
WINSTON-SALEM  PTSUNNY   82  61  48 VRB6      30.00F
RALEIGH-DURHAM PTSUNNY   81  61  50 NE7       30.00F
FORT BRAGG     PTSUNNY   83  67  56 E5        29.98F
FAYETTEVILLE   SUNNY     85  66  53 VRB6      29.98F
BURLINGTON     PTSUNNY   81  60  48 W5        29.99F
LAURINBURG     MOSUNNY   84  67  56 SE7       29.99F
$$

NCZ011-015-027-028-043-044-047-080-103-162000-
NORTHEASTERN NORTH CAROLINA

CITY           SKY/WX    TMP DP  RH WIND       PRES   REMARKS
ROCKY MT-WILSO PTSUNNY   82  62  50 CALM      29.99S
GREENVILLE     SUNNY     82  64  54 CALM      29.99F
WASHINGTON     SUNNY     80  66  60 CALM      29.98S
ELIZABETH CITY SUNNY     82  64  54 VRB3      29.96F
MANTEO         SUNNY     80  67  63 N8        29.96F
CAPE HATTERAS  SUNNY     79  69  71 SW7       29.97F
$$

NCZ078-087-090-091-093-098-101-162000-
SOUTHEASTERN NORTH CAROLINA

CITY           SKY/WX    TMP DP  RH WIND       PRES   REMARKS
LUMBERTON      MOSUNNY   86  67  52 NE8       29.97F
GOLDSBORO      SUNNY     82  69  64 CALM      29.96F
KINSTON        MOSUNNY   82  66  57 CALM      29.99F
KENANSVILLE    SUNNY     82  63  53 CALM      29.99F
NEW BERN       SUNNY     87  68  52 VRB6      29.97F
CHERRY POINT   PTSUNNY   84  69  60 N3        29.97F
BEAUFORT       SUNNY     80  72  76 S8        29.97F
JACKSONVILLE   PTSUNNY   83  69  62 CALM      29.96F
WILMINGTON     MOSUNNY   82  73  74 SE10      29.97F
$$




USA.gov is the U.S. government's official web portal to all federal, state and local government web resources and services.